COSMOS 1275 DEB, 42197

Orbit data source: Space-Track

COSMOS 1275 DEB, 42197 is space debris in LEO originally from a launch on Thu, 04 Jun 1981 UTC launched from the Plesetsk Missile And Space Complex (PKMTR). Debris objects in space refer to the collection of defunct objects orbiting the Earth. Examples of debris include non-operational satellites, rocket bodies, and fragments generated from explosions, collisions, or faulty payload assembly.

Loading next visibility...
Identifier
42197, 1981-053TM
Orbit
LEO
Country
Flag of CISCIS
Related business
Manufacturer
Unknown
Mission
Spacecraft
Bus & Motor
Unknown
Mass
Unknown
Launch date (UTC)
1981-06-04 (45 years ago)
Launch vehicle
Unknown
Launch site
Plesetsk Missile And Space Complex (PKMTR)
Object type
Payload
Rocket body
Debris
Shape & HBR
Unknown shape, 0.1 m
Radar Cross Section
Small (<0.1 m²)

Expand to show TLE details & history
Last TLE update: 2 days ago

TLE from 2 days ago
0 COSMOS 1275 DEB
1 42197U 81053TM  26171.28552719  .00000679  00000-0  70797-3 0  9991
2 42197  82.8472  16.3037 0113952 241.6549 117.3075 13.71353516627697
Epoch: 2026-06-20T06:51Z
TLE epoch observation values (Epoch: 2026-06-20T06:51:09.549Z)
Latitude
-0.00008°
Longitude
5.01156°
Altitude
1,036.908 km
Speed
7.314 km/s
True Right ascension
01h 05m 12s
True Declination
0° 00' 00"
Sunlit
Object was in daylight at epoch
Visualization orbit readout
Latitude
Unknown
Longitude
Unknown
Altitude
Unknown
Speed
Unknown
Apparent Right ascension
Unknown
Apparent Declination
Unknown
Sunlit
N/A
Visualization observer readout
Local Sidereal Time
21:48:29
Azimuth
Unknown
Elevation
Unknown
Doppler factor
Unknown
Orbital elements
Apogee altitude
1,075.855 km
Perigee altitude
907.89 km
Semi-major axis
7,370.01 km
Eccentricity
0.0114
Inclination
82.8472°
RAAN
16.3037°
Arg. of periapsis
241.6549°
True anomaly
118.46016°
Mean anomaly
117.3075°
Eccentric anomaly
117.88459°
Mean motion
3.43037 °/min
Orbital period
104.94 mins
BSTAR
0.00070797
Loading maneuver chart data...
Computing Atmospheric mass density...

Documentation

Showing up to 5 results
|